Time,TemperatureF,DewpointF,PressureIn,WindDirection,WindDirectionDegrees,WindSpeedMPH,WindSpeedGustMPH,Humidity,HourlyPrecipIn,Conditions,Clouds,dailyrainin,SoftwareType,DateUTC
2013-01-25 00:00:00,3.0,-0.9,29.70,SE,135,0.0,0.0,83,0.00,,,0.00,meteohub,2013-01-25 05:00:00,
2013-01-25 00:01:00,3.0,-0.9,29.70,SE,135,0.0,0.0,83,0.00,,,0.00,meteohub,2013-01-25 05:01:00,
2013-01-25 00:03:00,3.0,-0.9,29.70,SSE,158,0.0,0.0,83,0.00,,,0.00,meteohub,2013-01-25 05:03:00,
2013-01-25 00:08:00,3.2,-0.8,29.70,SW,225,0.0,0.0,83,0.00,,,0.00,meteohub,2013-01-25 05:08:00,
2013-01-25 00:13:00,3.2,-0.8,29.70,SW,225,0.0,0.0,83,0.00,,,0.00,meteohub,2013-01-25 05:13:00,
2013-01-25 00:18:00,3.2,-0.8,29.69,SW,225,0.0,0.0,83,0.00,,,0.00,meteohub,2013-01-25 05:18:00,
2013-01-25 00:23:00,3.4,-0.6,29.69,SW,225,0.0,0.0,83,0.00,,,0.00,meteohub,2013-01-25 05:23:00,
2013-01-25 00:28:00,3.4,-0.6,29.69,NNE,23,0.0,0.0,83,0.00,,,0.00,meteohub,2013-01-25 05:28:00,
2013-01-25 00:33:00,3.4,-0.6,29.69,NNE,23,0.0,0.0,83,0.00,,,0.00,meteohub,2013-01-25 05:33:00,
2013-01-25 00:38:00,3.6,-0.4,29.69,NE,45,0.0,0.0,83,0.00,,,0.00,meteohub,2013-01-25 05:38:00,
2013-01-25 00:43:00,3.6,-0.4,29.69,WSW,248,0.0,-999.0,83,0.00,,,0.00,meteohub,2013-01-25 05:43:00,
2013-01-25 00:48:00,3.7,-0.2,29.69,SW,225,0.0,0.0,83,0.00,,,0.00,meteohub,2013-01-25 05:48:00,
2013-01-25 00:53:00,3.9,0.0,29.69,SSW,203,0.0,0.0,83,0.00,,,0.00,meteohub,2013-01-25 05:53:00,
2013-01-25 00:58:00,4.1,0.1,29.68,SSE,158,0.0,0.0,83,0.00,,,0.00,meteohub,2013-01-25 05:58:00,
2013-01-25 01:03:00,4.3,0.3,29.68,ESE,113,0.0,0.0,83,0.00,,,0.00,meteohub,2013-01-25 06:03:00,
2013-01-25 01:08:00,4.5,0.5,29.68,SSE,158,0.0,0.0,83,0.00,,,0.00,meteohub,2013-01-25 06:08:00,
2013-01-25 01:13:00,4.6,0.7,29.68,East,90,0.0,0.0,83,0.00,,,0.00,meteohub,2013-01-25 06:13:00,
2013-01-25 01:18:00,4.6,0.7,29.65,ESE,113,0.0,0.0,83,0.00,,,0.00,meteohub,2013-01-25 06:18:00,
2013-01-25 01:23:00,4.6,0.7,29.65,East,90,0.0,0.0,83,0.00,,,0.00,meteohub,2013-01-25 06:23:00,
2013-01-25 01:28:00,5.0,1.0,29.65,SE,135,0.0,0.0,83,0.00,,,0.00,meteohub,2013-01-25 06:28:00,
2013-01-25 01:33:00,5.4,1.6,29.65,SE,135,0.0,0.0,84,0.00,,,0.00,meteohub,2013-01-25 06:33:00,
2013-01-25 01:38:00,5.9,2.1,29.64,ENE,68,0.0,0.0,84,0.00,,,0.00,meteohub,2013-01-25 06:38:00,
2013-01-25 01:43:00,6.1,2.3,29.64,East,90,0.0,0.0,84,0.00,,,0.00,meteohub,2013-01-25 06:43:00,
2013-01-25 01:48:00,6.6,2.8,29.64,ESE,113,0.0,0.0,84,0.00,,,0.00,meteohub,2013-01-25 06:48:00,
2013-01-25 01:53:00,6.8,3.0,29.64,ENE,68,0.0,3.0,84,0.00,,,0.00,meteohub,2013-01-25 06:53:00,
2013-01-25 01:58:00,7.0,3.2,29.62,East,90,2.0,3.0,84,0.00,,,0.00,meteohub,2013-01-25 06:58:00,
2013-01-25 02:03:00,7.2,3.4,29.62,ESE,113,0.0,2.0,84,0.00,,,0.00,meteohub,2013-01-25 07:03:00,
2013-01-25 02:08:00,7.5,3.7,29.62,East,90,1.0,2.0,84,0.00,,,0.00,meteohub,2013-01-25 07:08:00,
2013-01-25 02:13:00,7.5,3.7,29.62,SE,135,2.0,3.0,84,0.00,,,0.00,meteohub,2013-01-25 07:13:00,
2013-01-25 02:18:00,7.7,3.9,29.62,ESE,113,2.0,3.0,84,0.00,,,0.00,meteohub,2013-01-25 07:18:00,
2013-01-25 02:23:00,7.9,4.1,29.62,ENE,68,2.0,3.0,84,0.00,,,0.00,meteohub,2013-01-25 07:23:00,
2013-01-25 02:28:00,7.9,4.1,29.62,ESE,113,2.0,3.0,84,0.00,,,0.00,meteohub,2013-01-25 07:28:00,
2013-01-25 02:33:00,7.9,4.1,29.62,East,90,2.0,3.0,84,0.00,,,0.00,meteohub,2013-01-25 07:33:00,
2013-01-25 02:38:00,8.1,4.3,29.60,ESE,113,1.0,2.0,84,0.00,,,0.00,meteohub,2013-01-25 07:38:00,
2013-01-25 02:43:00,8.2,4.5,29.60,SSE,158,2.0,2.0,84,0.00,,,0.00,meteohub,2013-01-25 07:43:00,
2013-01-25 02:48:00,8.2,4.5,29.60,ESE,113,0.0,2.0,84,0.00,,,0.00,meteohub,2013-01-25 07:48:00,
2013-01-25 02:54:00,8.2,4.1,29.60,ESE,113,2.0,2.0,83,0.00,,,0.00,meteohub,2013-01-25 07:54:00,
2013-01-25 02:59:00,8.2,4.5,29.60,ESE,113,0.0,2.0,84,0.00,,,0.00,meteohub,2013-01-25 07:59:00,
2013-01-25 03:04:00,8.2,4.1,29.60,ESE,113,2.0,3.0,83,0.00,,,0.00,meteohub,2013-01-25 08:04:00,
2013-01-25 03:09:00,8.2,4.1,29.60,SSE,158,0.0,3.0,83,0.00,,,0.00,meteohub,2013-01-25 08:09:00,
2013-01-25 03:14:00,8.4,4.3,29.60,SSE,158,0.0,3.0,83,0.00,,,0.00,meteohub,2013-01-25 08:14:00,
2013-01-25 03:19:00,8.4,4.3,29.58,East,90,0.0,2.0,83,0.00,,,0.00,meteohub,2013-01-25 08:19:00,
2013-01-25 03:24:00,8.4,4.3,29.58,SSW,203,2.0,2.0,83,0.00,,,0.00,meteohub,2013-01-25 08:24:00,
2013-01-25 03:29:00,8.6,4.5,29.58,SE,135,0.0,2.0,83,0.00,,,0.00,meteohub,2013-01-25 08:29:00,
2013-01-25 03:34:00,8.6,4.5,29.58,East,90,2.0,2.0,83,0.00,,,0.00,meteohub,2013-01-25 08:34:00,
2013-01-25 03:39:00,8.8,4.6,29.57,ESE,113,0.0,2.0,83,0.00,,,0.00,meteohub,2013-01-25 08:39:00,
2013-01-25 03:44:00,8.8,4.6,29.57,SSE,158,1.0,3.0,83,0.00,,,0.00,meteohub,2013-01-25 08:44:00,
2013-01-25 03:49:00,9.0,4.8,29.57,ESE,113,0.0,3.0,83,0.00,,,0.00,meteohub,2013-01-25 08:49:00,
2013-01-25 03:54:00,9.0,4.8,29.57,SSE,158,0.0,2.0,83,0.00,,,0.00,meteohub,2013-01-25 08:54:00,
2013-01-25 03:59:00,9.0,4.8,29.56,SSE,158,0.0,2.0,83,0.00,,,0.00,meteohub,2013-01-25 08:59:00,
2013-01-25 04:04:00,9.0,4.8,29.56,ESE,113,0.0,2.0,83,0.00,,,0.00,meteohub,2013-01-25 09:04:00,
2013-01-25 04:09:00,9.0,4.8,29.56,East,90,0.0,2.0,83,0.00,,,0.00,meteohub,2013-01-25 09:09:00,
2013-01-25 04:14:00,9.0,4.8,29.56,ESE,113,1.0,2.0,83,0.00,,,0.00,meteohub,2013-01-25 09:14:00,
2013-01-25 04:19:00,9.0,4.8,29.55,WNW,293,1.0,2.0,83,0.00,,,0.00,meteohub,2013-01-25 09:19:00,
2013-01-25 04:24:00,9.0,4.8,29.55,ESE,113,0.0,2.0,83,0.00,,,0.00,meteohub,2013-01-25 09:24:00,
2013-01-25 04:29:00,9.0,4.8,29.55,SE,135,0.0,2.0,83,0.00,,,0.00,meteohub,2013-01-25 09:29:00,
2013-01-25 04:34:00,9.0,4.8,29.55,ESE,113,0.0,3.0,83,0.00,,,0.00,meteohub,2013-01-25 09:34:00,
2013-01-25 04:39:00,9.0,4.8,29.54,ESE,113,2.0,3.0,83,0.00,,,0.00,meteohub,2013-01-25 09:39:00,
2013-01-25 04:44:00,9.0,4.8,29.54,SE,135,2.0,3.0,83,0.00,,,0.00,meteohub,2013-01-25 09:44:00,
2013-01-25 04:49:00,9.1,5.0,29.54,ESE,113,2.0,3.0,83,0.00,,,0.00,meteohub,2013-01-25 09:49:00,
2013-01-25 04:54:00,9.1,5.0,29.54,East,90,0.0,3.0,83,0.00,,,0.00,meteohub,2013-01-25 09:54:00,
2013-01-25 04:59:00,9.1,5.0,29.53,ESE,113,1.0,2.0,83,0.00,,,0.00,meteohub,2013-01-25 09:59:00,
2013-01-25 05:04:00,9.1,5.0,29.53,SE,135,2.0,2.0,83,0.00,,,0.00,meteohub,2013-01-25 10:04:00,
2013-01-25 05:09:00,9.1,5.0,29.53,SE,135,2.0,3.0,83,0.00,,,0.00,meteohub,2013-01-25 10:09:00,
2013-01-25 05:14:00,9.1,5.0,29.51,SE,135,3.0,3.0,83,0.00,,,0.00,meteohub,2013-01-25 10:14:00,
2013-01-25 05:19:00,9.3,5.2,29.51,SSE,158,1.0,2.0,83,0.00,,,0.00,meteohub,2013-01-25 10:19:00,
2013-01-25 05:24:00,9.1,5.0,29.51,SE,135,2.0,2.0,83,0.00,,,0.00,meteohub,2013-01-25 10:24:00,
2013-01-25 05:29:00,9.1,5.0,29.51,ESE,113,1.0,4.0,83,0.00,,,0.00,meteohub,2013-01-25 10:29:00,
2013-01-25 05:34:00,9.1,5.0,29.51,SE,135,2.0,4.0,83,0.00,,,0.00,meteohub,2013-01-25 10:34:00,
2013-01-25 05:39:00,9.1,5.0,29.50,ENE,68,2.0,4.0,83,0.00,,,0.00,meteohub,2013-01-25 10:39:00,
2013-01-25 05:44:00,9.3,5.2,29.50,SSW,203,4.0,4.0,83,0.00,,,0.00,meteohub,2013-01-25 10:44:00,
2013-01-25 05:49:00,9.1,5.0,29.50,SSW,203,0.0,4.0,83,0.00,,,0.00,meteohub,2013-01-25 10:49:00,
2013-01-25 05:54:00,9.3,5.2,29.50,ESE,113,4.0,4.0,83,0.00,,,0.00,meteohub,2013-01-25 10:54:00,
2013-01-25 06:00:00,9.3,5.2,29.48,SE,135,2.0,4.0,83,0.00,,,0.00,meteohub,2013-01-25 11:00:00,
2013-01-25 06:05:00,9.5,5.4,29.48,East,90,4.0,4.0,83,0.00,,,0.00,meteohub,2013-01-25 11:05:00,
2013-01-25 06:10:00,9.5,5.4,29.48,SSE,158,5.0,5.0,83,0.00,,,0.00,meteohub,2013-01-25 11:10:00,
2013-01-25 06:15:00,9.5,5.4,29.47,East,90,2.0,4.0,83,0.00,,,0.00,meteohub,2013-01-25 11:15:00,
2013-01-25 06:20:00,9.7,5.5,29.47,SE,135,4.0,5.0,83,0.00,,,0.00,meteohub,2013-01-25 11:20:00,
2013-01-25 06:25:00,9.7,5.5,29.47,East,90,3.0,5.0,83,0.00,,,0.00,meteohub,2013-01-25 11:25:00,
2013-01-25 06:30:00,9.7,5.5,29.47,SE,135,2.0,4.0,83,0.00,,,0.00,meteohub,2013-01-25 11:30:00,
2013-01-25 06:35:00,9.7,5.5,29.47,ESE,113,2.0,4.0,83,0.00,,,0.00,meteohub,2013-01-25 11:35:00,
2013-01-25 06:40:00,9.7,5.5,29.46,ESE,113,4.0,4.0,83,0.00,,,0.00,meteohub,2013-01-25 11:40:00,
2013-01-25 06:45:00,9.7,5.5,29.46,SSE,158,3.0,4.0,83,0.00,,,0.00,meteohub,2013-01-25 11:45:00,
2013-01-25 06:50:00,9.7,5.5,29.46,ESE,113,3.0,4.0,83,0.00,,,0.00,meteohub,2013-01-25 11:50:00,
2013-01-25 06:55:00,9.7,5.5,29.45,South,180,2.0,4.0,83,0.00,,,0.00,meteohub,2013-01-25 11:55:00,
2013-01-25 07:00:00,9.7,5.5,29.45,SSE,158,3.0,3.0,83,0.00,,,0.00,meteohub,2013-01-25 12:00:00,
2013-01-25 07:05:00,9.7,5.5,29.45,South,180,2.0,3.0,83,0.00,,,0.00,meteohub,2013-01-25 12:05:00,
2013-01-25 07:10:00,9.9,5.7,29.45,ESE,113,2.0,3.0,83,0.00,,,0.00,meteohub,2013-01-25 12:10:00,
2013-01-25 07:15:00,9.9,5.7,29.44,WNW,293,2.0,4.0,83,0.00,,,0.00,meteohub,2013-01-25 12:15:00,
2013-01-25 07:20:00,10.0,5.9,29.44,SW,225,4.0,4.0,83,0.00,,,0.00,meteohub,2013-01-25 12:20:00,
2013-01-25 07:25:00,10.0,5.9,29.44,ESE,113,2.0,4.0,83,0.00,,,0.00,meteohub,2013-01-25 12:25:00,
2013-01-25 07:30:00,10.0,5.9,29.44,SSE,158,2.0,4.0,83,0.00,,,0.00,meteohub,2013-01-25 12:30:00,
2013-01-25 07:35:00,10.2,6.4,29.44,SE,135,3.0,4.0,84,0.00,,,0.00,meteohub,2013-01-25 12:35:00,
2013-01-25 07:40:00,10.2,6.4,29.43,ESE,113,2.0,3.0,84,0.00,,,0.00,meteohub,2013-01-25 12:40:00,
2013-01-25 07:45:00,10.2,6.4,29.43,SW,225,2.0,4.0,84,0.00,,,0.00,meteohub,2013-01-25 12:45:00,
2013-01-25 07:50:00,10.4,6.6,29.43,ESE,113,0.0,4.0,84,0.00,,,0.00,meteohub,2013-01-25 12:50:00,
2013-01-25 07:55:00,10.4,6.6,29.42,East,90,3.0,3.0,84,0.00,,,0.00,meteohub,2013-01-25 12:55:00,
2013-01-25 08:00:00,10.4,6.6,29.42,SE,135,3.0,4.0,84,0.00,,,0.00,meteohub,2013-01-25 13:00:00,
2013-01-25 08:05:00,10.4,6.6,29.42,NE,45,3.0,5.0,84,0.00,,,0.00,meteohub,2013-01-25 13:05:00,
2013-01-25 08:10:00,10.4,6.6,29.42,ESE,113,3.0,5.0,84,0.00,,,0.00,meteohub,2013-01-25 13:10:00,
2013-01-25 08:15:00,10.4,6.6,29.41,SSW,203,2.0,4.0,84,0.00,,,0.00,meteohub,2013-01-25 13:15:00,
2013-01-25 08:20:00,10.4,6.6,29.41,SSW,203,0.0,4.0,84,0.00,,,0.00,meteohub,2013-01-25 13:20:00,
2013-01-25 08:25:00,10.4,6.6,29.41,ESE,113,2.0,4.0,84,0.00,,,0.00,meteohub,2013-01-25 13:25:00,
2013-01-25 08:30:00,10.6,6.6,29.41,SE,135,0.0,4.0,84,0.00,,,0.00,meteohub,2013-01-25 13:30:00,
2013-01-25 08:35:00,10.6,6.6,29.41,NE,45,3.0,4.0,84,0.00,,,0.00,meteohub,2013-01-25 13:35:00,
2013-01-25 08:40:00,10.8,6.8,29.40,SSE,158,2.0,4.0,84,0.00,,,0.00,meteohub,2013-01-25 13:40:00,
2013-01-25 08:45:00,10.8,6.8,29.40,SW,225,3.0,4.0,84,0.00,,,0.00,meteohub,2013-01-25 13:45:00,
2013-01-25 08:50:00,10.8,6.8,29.40,SSW,203,3.0,4.0,84,0.00,,,0.00,meteohub,2013-01-25 13:50:00,
2013-01-25 08:55:00,10.9,7.0,29.39,SE,135,3.0,4.0,84,0.00,,,0.00,meteohub,2013-01-25 13:55:00,
2013-01-25 09:00:00,11.1,7.2,29.39,SSE,158,6.0,6.0,84,0.00,,,0.00,meteohub,2013-01-25 14:00:00,
2013-01-25 09:05:00,11.1,7.2,29.39,NNE,23,3.0,6.0,84,0.00,,,0.00,meteohub,2013-01-25 14:05:00,
2013-01-25 09:10:00,11.1,7.2,29.39,WSW,248,2.0,6.0,84,0.00,,,0.00,meteohub,2013-01-25 14:10:00,
2013-01-25 09:15:00,11.5,7.5,29.38,SSE,158,5.0,7.0,84,0.00,,,0.00,meteohub,2013-01-25 14:15:00,
2013-01-25 09:20:00,11.5,7.5,29.38,East,90,4.0,7.0,84,0.00,,,0.00,meteohub,2013-01-25 14:20:00,
2013-01-25 09:25:00,11.7,7.5,29.38,North,0,2.0,6.0,83,0.00,,,0.00,meteohub,2013-01-25 14:25:00,
2013-01-25 09:30:00,11.8,7.7,29.38,SSE,158,2.0,6.0,83,0.00,,,0.00,meteohub,2013-01-25 14:30:00,
2013-01-25 09:35:00,12.0,7.9,29.37,ESE,113,3.0,5.0,83,0.00,,,0.00,meteohub,2013-01-25 14:35:00,
2013-01-25 09:40:00,12.4,8.4,29.37,ESE,113,4.0,4.0,84,0.00,,,0.00,meteohub,2013-01-25 14:40:00,
2013-01-25 09:45:00,12.4,8.2,29.37,SE,135,4.0,6.0,83,0.00,,,0.00,meteohub,2013-01-25 14:45:00,
2013-01-25 09:50:00,12.6,8.4,29.37,East,90,2.0,6.0,83,0.00,,,0.00,meteohub,2013-01-25 14:50:00,
2013-01-25 09:55:00,12.7,8.6,29.36,WSW,248,4.0,6.0,83,0.00,,,0.00,meteohub,2013-01-25 14:55:00,
2013-01-25 10:00:00,12.9,8.8,29.36,SSW,203,3.0,6.0,83,0.00,,,0.00,meteohub,2013-01-25 15:00:00,
2013-01-25 10:05:00,12.9,8.8,29.36,NNE,23,4.0,6.0,83,0.00,,,0.00,meteohub,2013-01-25 15:05:00,
2013-01-25 10:10:00,13.3,9.1,29.36,SE,135,4.0,6.0,83,0.00,,,0.00,meteohub,2013-01-25 15:10:00,
2013-01-25 10:15:00,13.5,9.3,29.36,SE,135,2.0,6.0,83,0.00,,,0.00,meteohub,2013-01-25 15:15:00,
2013-01-25 10:20:00,14.0,9.9,29.36,SE,135,3.0,5.0,83,0.00,,,0.00,meteohub,2013-01-25 15:20:00,
2013-01-25 10:26:00,14.0,9.9,29.36,NE,45,3.0,6.0,83,0.00,,,0.00,meteohub,2013-01-25 15:26:00,
2013-01-25 10:31:00,14.2,10.0,29.36,East,90,2.0,6.0,83,0.00,,,0.00,meteohub,2013-01-25 15:31:00,
2013-01-25 10:36:00,14.2,10.0,29.36,ESE,113,2.0,5.0,83,0.00,,,0.00,meteohub,2013-01-25 15:36:00,
2013-01-25 10:41:00,14.4,10.2,29.36,ESE,113,2.0,5.0,83,0.00,,,0.00,meteohub,2013-01-25 15:41:00,
2013-01-25 10:46:00,14.4,10.2,29.36,SSW,203,6.0,6.0,83,0.00,,,0.00,meteohub,2013-01-25 15:46:00,
2013-01-25 10:51:00,14.5,10.4,29.36,East,90,4.0,6.0,83,0.00,,,0.00,meteohub,2013-01-25 15:51:00,
2013-01-25 10:56:00,14.7,10.6,29.34,SE,135,4.0,6.0,83,0.00,,,0.00,meteohub,2013-01-25 15:56:00,
2013-01-25 11:01:00,14.7,10.6,29.34,East,90,2.0,6.0,83,0.00,,,0.00,meteohub,2013-01-25 16:01:00,
2013-01-25 11:06:00,14.9,10.8,29.34,East,90,4.0,6.0,83,0.00,,,0.00,meteohub,2013-01-25 16:06:00,
2013-01-25 11:11:00,15.1,10.9,29.34,East,90,2.0,6.0,83,0.00,,,0.00,meteohub,2013-01-25 16:11:00,
2013-01-25 11:16:00,15.3,11.1,29.33,ESE,113,4.0,6.0,83,0.00,,,0.00,meteohub,2013-01-25 16:16:00,
2013-01-25 11:21:00,15.3,11.1,29.33,SE,135,7.0,7.0,83,0.00,,,0.00,meteohub,2013-01-25 16:21:00,
2013-01-25 11:26:00,15.4,11.1,29.33,SE,135,6.0,7.0,83,0.00,,,0.00,meteohub,2013-01-25 16:26:00,
2013-01-25 11:31:00,15.6,11.3,29.33,NNE,23,3.0,7.0,83,0.00,,,0.00,meteohub,2013-01-25 16:31:00,
2013-01-25 11:36:00,16.0,11.7,29.31,ESE,113,4.0,7.0,83,0.00,,,0.00,meteohub,2013-01-25 16:36:00,
2013-01-25 11:41:00,16.0,11.7,29.31,SE,135,4.0,6.0,83,0.00,,,0.00,meteohub,2013-01-25 16:41:00,
2013-01-25 11:46:00,16.2,11.8,29.31,South,180,7.0,7.0,83,0.00,,,0.00,meteohub,2013-01-25 16:46:00,
2013-01-25 11:51:00,16.3,12.0,29.31,SSE,158,6.0,7.0,83,0.00,,,0.00,meteohub,2013-01-25 16:51:00,
2013-01-25 11:56:00,16.5,12.2,29.30,SSE,158,4.0,7.0,83,0.00,,,0.00,meteohub,2013-01-25 16:56:00,
2013-01-25 12:01:00,16.7,12.4,29.30,SSE,158,4.0,7.0,83,0.00,,,0.00,meteohub,2013-01-25 17:01:00,
2013-01-25 12:06:00,16.9,12.6,29.30,SSE,158,4.0,8.0,83,0.00,,,0.00,meteohub,2013-01-25 17:06:00,
2013-01-25 12:11:00,17.2,12.9,29.30,SE,135,5.0,8.0,83,0.00,,,0.00,meteohub,2013-01-25 17:11:00,
2013-01-25 12:16:00,17.2,12.9,29.28,SSE,158,7.0,8.0,83,0.00,,,0.00,meteohub,2013-01-25 17:16:00,
2013-01-25 12:21:00,17.1,12.7,29.28,SE,135,4.0,8.0,83,0.00,,,0.00,meteohub,2013-01-25 17:21:00,
2013-01-25 12:26:00,17.1,12.7,29.28,SE,135,5.0,8.0,83,0.00,,,0.00,meteohub,2013-01-25 17:26:00,
2013-01-25 12:31:00,17.2,12.9,29.28,SE,135,2.0,8.0,83,0.00,,,0.00,meteohub,2013-01-25 17:31:00,
2013-01-25 12:36:00,17.4,13.1,29.28,ESE,113,3.0,7.0,83,0.00,,,0.00,meteohub,2013-01-25 17:36:00,
2013-01-25 12:41:00,17.6,13.3,29.28,SE,135,5.0,7.0,83,0.00,,,0.00,meteohub,2013-01-25 17:41:00,
2013-01-25 12:46:00,17.8,13.5,29.28,SSE,158,7.0,7.0,83,0.00,,,0.00,meteohub,2013-01-25 17:46:00,
2013-01-25 12:51:00,18.0,13.6,29.28,SE,135,3.0,6.0,83,0.00,,,0.00,meteohub,2013-01-25 17:51:00,
2013-01-25 12:56:00,18.3,14.0,29.25,ENE,68,3.0,7.0,83,0.00,,,0.00,meteohub,2013-01-25 17:56:00,
2013-01-25 13:01:00,18.5,14.2,29.25,SSE,158,9.0,9.0,83,0.00,,,0.00,meteohub,2013-01-25 18:01:00,
2013-01-25 13:06:00,18.7,14.4,29.25,SSE,158,6.0,7.0,83,0.00,,,0.00,meteohub,2013-01-25 18:06:00,
2013-01-25 13:11:00,18.9,14.5,29.25,ESE,113,3.0,9.0,83,0.00,,,0.00,meteohub,2013-01-25 18:11:00,
2013-01-25 13:16:00,18.9,14.5,29.24,SE,135,8.0,9.0,83,0.00,,,0.00,meteohub,2013-01-25 18:16:00,
2013-01-25 13:21:00,18.9,14.5,29.24,East,90,2.0,8.0,83,0.00,,,0.00,meteohub,2013-01-25 18:21:00,
2013-01-25 13:26:00,18.9,14.5,29.24,ESE,113,3.0,9.0,83,0.00,,,0.00,meteohub,2013-01-25 18:26:00,
2013-01-25 13:31:00,19.0,14.7,29.24,South,180,4.0,9.0,83,0.00,,,0.00,meteohub,2013-01-25 18:31:00,
2013-01-25 13:36:00,19.4,15.1,29.22,ESE,113,5.0,9.0,83,0.00,,,0.00,meteohub,2013-01-25 18:36:00,
2013-01-25 13:41:00,19.6,15.3,29.22,ESE,113,3.0,9.0,83,0.00,,,0.00,meteohub,2013-01-25 18:41:00,
2013-01-25 13:46:00,19.6,15.3,29.22,SE,135,3.0,5.0,83,0.00,,,0.00,meteohub,2013-01-25 18:46:00,
2013-01-25 13:51:00,19.4,15.1,29.22,SSE,158,5.0,5.0,83,0.00,,,0.00,meteohub,2013-01-25 18:51:00,
2013-01-25 13:56:00,19.2,14.9,29.21,SW,225,3.0,8.0,83,0.00,,,0.00,meteohub,2013-01-25 18:56:00,
2013-01-25 14:02:00,19.4,15.1,29.21,SW,225,7.0,11.0,83,0.00,,,0.00,meteohub,2013-01-25 19:02:00,
2013-01-25 14:07:00,19.2,14.9,29.21,East,90,5.0,11.0,83,0.00,,,0.00,meteohub,2013-01-25 19:07:00,
2013-01-25 14:12:00,19.6,15.3,29.21,SE,135,2.0,11.0,83,0.00,,,0.00,meteohub,2013-01-25 19:12:00,
2013-01-25 14:17:00,19.6,14.9,29.20,SSE,158,7.0,10.0,82,0.00,,,0.00,meteohub,2013-01-25 19:17:00,
2013-01-25 14:22:00,19.6,14.9,29.20,ESE,113,3.0,10.0,82,0.00,,,0.00,meteohub,2013-01-25 19:22:00,
2013-01-25 14:27:00,19.6,15.3,29.20,SE,135,2.0,7.0,83,0.00,,,0.00,meteohub,2013-01-25 19:27:00,
2013-01-25 14:32:00,19.4,15.1,29.20,SE,135,2.0,7.0,83,0.00,,,0.00,meteohub,2013-01-25 19:32:00,
2013-01-25 14:37:00,19.6,15.3,29.20,ESE,113,2.0,7.0,83,0.00,,,0.00,meteohub,2013-01-25 19:37:00,
2013-01-25 14:42:00,19.6,14.9,29.20,ESE,113,4.0,7.0,82,0.00,,,0.00,meteohub,2013-01-25 19:42:00,
2013-01-25 14:47:00,19.6,14.9,29.20,ENE,68,3.0,5.0,82,0.00,,,0.00,meteohub,2013-01-25 19:47:00,
2013-01-25 14:52:00,19.6,14.9,29.20,SSW,203,6.0,6.0,82,0.00,,,0.00,meteohub,2013-01-25 19:52:00,
2013-01-25 14:57:00,19.6,14.9,29.20,SSE,158,3.0,7.0,82,0.00,,,0.00,meteohub,2013-01-25 19:57:00,
2013-01-25 15:02:00,19.6,14.9,29.20,SSE,158,3.0,7.0,82,0.00,,,0.00,meteohub,2013-01-25 20:02:00,
2013-01-25 15:07:00,19.6,14.9,29.20,SSE,158,3.0,7.0,82,0.00,,,0.00,meteohub,2013-01-25 20:07:00,
2013-01-25 15:12:00,19.6,14.9,29.20,SE,135,2.0,7.0,82,0.00,,,0.00,meteohub,2013-01-25 20:12:00,
2013-01-25 15:17:00,19.6,14.9,29.20,SE,135,3.0,5.0,82,0.00,,,0.00,meteohub,2013-01-25 20:17:00,
2013-01-25 15:22:00,19.6,14.9,29.20,South,180,3.0,5.0,82,0.00,,,0.00,meteohub,2013-01-25 20:22:00,
2013-01-25 15:27:00,19.6,14.9,29.20,ESE,113,2.0,5.0,82,0.00,,,0.00,meteohub,2013-01-25 20:27:00,
2013-01-25 15:32:00,19.6,14.9,29.20,SE,135,2.0,5.0,82,0.00,,,0.00,meteohub,2013-01-25 20:32:00,
2013-01-25 15:37:00,19.6,14.9,29.20,ESE,113,3.0,5.0,82,0.00,,,0.00,meteohub,2013-01-25 20:37:00,
2013-01-25 15:42:00,19.6,14.9,29.20,SSE,158,2.0,5.0,82,0.00,,,0.00,meteohub,2013-01-25 20:42:00,
2013-01-25 15:47:00,19.6,14.9,29.20,SE,135,0.0,5.0,82,0.00,,,0.00,meteohub,2013-01-25 20:47:00,
2013-01-25 15:52:00,19.6,14.9,29.20,South,180,6.0,6.0,82,0.00,,,0.00,meteohub,2013-01-25 20:52:00,
2013-01-25 15:57:00,19.6,14.9,29.20,SSE,158,2.0,6.0,82,0.00,,,0.00,meteohub,2013-01-25 20:57:00,
2013-01-25 16:02:00,19.6,14.9,29.20,SE,135,2.0,6.0,82,0.00,,,0.00,meteohub,2013-01-25 21:02:00,
2013-01-25 16:07:00,19.6,14.9,29.20,SSE,158,4.0,6.0,82,0.00,,,0.00,meteohub,2013-01-25 21:07:00,
2013-01-25 16:12:00,19.6,14.9,29.20,SSE,158,2.0,6.0,82,0.00,,,0.00,meteohub,2013-01-25 21:12:00,
2013-01-25 16:17:00,19.6,14.9,29.20,North,0,2.0,4.0,82,0.00,,,0.00,meteohub,2013-01-25 21:17:00,
2013-01-25 16:22:00,19.6,14.9,29.20,SSE,158,4.0,4.0,82,0.00,,,0.00,meteohub,2013-01-25 21:22:00,
2013-01-25 16:27:00,19.6,14.9,29.20,East,90,2.0,3.0,82,0.00,,,0.00,meteohub,2013-01-25 21:27:00,
2013-01-25 16:32:00,19.6,14.9,29.20,SSW,203,3.0,3.0,82,0.00,,,0.00,meteohub,2013-01-25 21:32:00,
2013-01-25 16:37:00,19.4,14.7,29.21,SE,135,0.0,4.0,82,0.00,,,0.00,meteohub,2013-01-25 21:37:00,
2013-01-25 16:42:00,19.4,14.7,29.21,SSE,158,3.0,4.0,82,0.00,,,0.00,meteohub,2013-01-25 21:42:00,
2013-01-25 16:47:00,19.4,14.7,29.21,SSE,158,2.0,3.0,82,0.00,,,0.00,meteohub,2013-01-25 21:47:00,
2013-01-25 16:52:00,19.2,14.7,29.21,SE,135,2.0,3.0,82,0.00,,,0.00,meteohub,2013-01-25 21:52:00,
2013-01-25 16:57:00,19.2,14.7,29.21,SSE,158,4.0,4.0,82,0.00,,,0.00,meteohub,2013-01-25 21:57:00,
2013-01-25 17:02:00,19.0,14.5,29.21,SSE,158,0.0,4.0,82,0.00,,,0.00,meteohub,2013-01-25 22:02:00,
2013-01-25 17:08:00,19.0,14.7,29.21,ESE,113,2.0,4.0,83,0.00,,,0.00,meteohub,2013-01-25 22:08:00,
2013-01-25 17:13:00,18.9,14.5,29.21,East,90,2.0,4.0,83,0.00,,,0.00,meteohub,2013-01-25 22:13:00,
2013-01-25 17:18:00,18.7,14.4,29.21,NE,45,0.0,4.0,83,0.00,,,0.00,meteohub,2013-01-25 22:18:00,
2013-01-25 17:23:00,18.5,14.2,29.21,SSE,158,0.0,4.0,83,0.00,,,0.00,meteohub,2013-01-25 22:23:00,
2013-01-25 17:28:00,18.5,14.2,29.21,East,90,0.0,4.0,83,0.00,,,0.00,meteohub,2013-01-25 22:28:00,
2013-01-25 17:33:00,18.3,14.0,29.21,ESE,113,0.0,4.0,83,0.00,,,0.00,meteohub,2013-01-25 22:33:00,
2013-01-25 17:38:00,18.3,14.0,29.21,SSE,158,0.0,0.0,83,0.00,,,0.00,meteohub,2013-01-25 22:38:00,
2013-01-25 17:43:00,18.3,14.0,29.21,SSE,158,0.0,0.0,83,0.00,,,0.00,meteohub,2013-01-25 22:43:00,
2013-01-25 17:48:00,18.1,13.8,29.21,NE,45,0.0,1.0,83,0.00,,,0.00,meteohub,2013-01-25 22:48:00,
2013-01-25 17:53:00,18.0,13.6,29.21,SE,135,0.0,1.0,83,0.00,,,0.00,meteohub,2013-01-25 22:53:00,
2013-01-25 17:58:00,18.0,13.6,29.22,SSE,158,0.0,0.0,83,0.00,,,0.00,meteohub,2013-01-25 22:58:00,
2013-01-25 18:03:00,17.8,13.5,29.22,East,90,0.0,0.0,83,0.00,,,0.00,meteohub,2013-01-25 23:03:00,
2013-01-25 18:08:00,17.8,13.5,29.22,SE,135,2.0,2.0,83,0.00,,,0.00,meteohub,2013-01-25 23:08:00,
2013-01-25 18:13:00,17.6,13.3,29.22,ESE,113,1.0,2.0,83,0.00,,,0.00,meteohub,2013-01-25 23:13:00,
2013-01-25 18:18:00,17.6,13.3,29.22,SE,135,0.0,2.0,83,0.00,,,0.00,meteohub,2013-01-25 23:18:00,
2013-01-25 18:23:00,17.6,13.3,29.22,SE,135,0.0,2.0,83,0.00,,,0.00,meteohub,2013-01-25 23:23:00,
2013-01-25 18:28:00,17.6,13.3,29.22,East,90,0.0,2.0,83,0.00,,,0.00,meteohub,2013-01-25 23:28:00,
2013-01-25 18:33:00,17.4,12.9,29.22,ESE,113,0.0,2.0,82,0.00,,,0.00,meteohub,2013-01-25 23:33:00,
2013-01-25 18:38:00,17.6,13.3,29.22,SSE,158,0.0,2.0,83,0.00,,,0.00,meteohub,2013-01-25 23:38:00,
2013-01-25 18:43:00,17.6,13.3,29.22,West,270,0.0,2.0,83,0.00,,,0.00,meteohub,2013-01-25 23:43:00,
2013-01-25 18:48:00,17.6,13.3,29.22,ESE,113,0.0,2.0,83,0.00,,,0.00,meteohub,2013-01-25 23:48:00,
2013-01-25 18:53:00,17.6,13.3,29.22,ESE,113,0.0,1.0,83,0.00,,,0.00,meteohub,2013-01-25 23:53:00,
2013-01-25 18:58:00,17.4,12.9,29.23,NE,45,0.0,1.0,82,0.00,,,0.00,meteohub,2013-01-25 23:58:00,
2013-01-25 19:03:00,17.4,12.9,29.23,SE,135,0.0,1.0,82,0.00,,,0.00,meteohub,2013-01-26 00:03:00,
2013-01-25 19:08:00,17.4,12.9,29.23,ESE,113,0.0,0.0,82,0.00,,,0.00,meteohub,2013-01-26 00:08:00,
2013-01-25 19:13:00,17.4,13.1,29.23,East,90,0.0,0.0,83,0.00,,,0.00,meteohub,2013-01-26 00:13:00,
2013-01-25 19:18:00,17.2,12.9,29.24,ESE,113,0.0,0.0,83,0.00,,,0.00,meteohub,2013-01-26 00:18:00,
2013-01-25 19:23:00,17.2,12.9,29.24,ESE,113,0.0,0.0,83,0.00,,,0.00,meteohub,2013-01-26 00:23:00,
2013-01-25 19:28:00,17.1,12.7,29.24,SE,135,0.0,0.0,83,0.00,,,0.00,meteohub,2013-01-26 00:28:00,
2013-01-25 19:33:00,17.1,12.7,29.24,ESE,113,0.0,0.0,83,0.00,,,0.00,meteohub,2013-01-26 00:33:00,
2013-01-25 19:38:00,17.1,12.7,29.23,ESE,113,0.0,0.0,83,0.00,,,0.00,meteohub,2013-01-26 00:38:00,
2013-01-25 19:43:00,17.1,12.7,29.23,East,90,0.0,0.0,83,0.00,,,0.00,meteohub,2013-01-26 00:43:00,
2013-01-25 19:48:00,17.1,12.7,29.23,NE,45,0.0,0.0,83,0.00,,,0.00,meteohub,2013-01-26 00:48:00,
2013-01-25 19:53:00,17.1,12.7,29.23,ESE,113,0.0,0.0,83,0.00,,,0.00,meteohub,2013-01-26 00:53:00,
2013-01-25 19:58:00,16.9,12.6,29.23,East,90,0.0,0.0,83,0.00,,,0.00,meteohub,2013-01-26 00:58:00,
2013-01-25 20:03:00,16.9,12.6,29.23,NE,45,0.0,0.0,83,0.00,,,0.00,meteohub,2013-01-26 01:03:00,
2013-01-25 20:08:00,16.9,12.6,29.23,ESE,113,0.0,0.0,83,0.00,,,0.00,meteohub,2013-01-26 01:08:00,
2013-01-25 20:13:00,16.9,12.6,29.23,East,90,0.0,2.0,83,0.00,,,0.00,meteohub,2013-01-26 01:13:00,
2013-01-25 20:18:00,16.9,12.6,29.23,East,90,0.0,2.0,83,0.00,,,0.00,meteohub,2013-01-26 01:18:00,
2013-01-25 20:23:00,16.9,12.6,29.23,ESE,113,0.0,2.0,83,0.00,,,0.00,meteohub,2013-01-26 01:23:00,
2013-01-25 20:28:00,16.9,12.6,29.23,East,90,0.0,2.0,83,0.00,,,0.00,meteohub,2013-01-26 01:28:00,
2013-01-25 20:33:00,16.7,12.4,29.23,ESE,113,1.0,2.0,83,0.00,,,0.00,meteohub,2013-01-26 01:33:00,
2013-01-25 20:38:00,16.7,12.4,29.23,ESE,113,0.0,2.0,83,0.00,,,0.00,meteohub,2013-01-26 01:38:00,
2013-01-25 20:43:00,16.5,12.2,29.23,WNW,293,0.0,2.0,83,0.00,,,0.00,meteohub,2013-01-26 01:43:00,
2013-01-25 20:48:00,16.5,12.2,29.23,NE,45,0.0,2.0,83,0.00,,,0.00,meteohub,2013-01-26 01:48:00,
2013-01-25 20:53:00,16.2,11.8,29.23,NE,45,0.0,0.0,83,0.00,,,0.00,meteohub,2013-01-26 01:53:00,
2013-01-25 20:59:00,16.0,11.7,29.23,NE,45,0.0,0.0,83,0.00,,,0.00,meteohub,2013-01-26 01:59:00,
2013-01-25 21:04:00,15.8,11.5,29.23,NE,45,0.0,0.0,83,0.00,,,0.00,meteohub,2013-01-26 02:04:00,
2013-01-25 21:09:00,15.6,11.3,29.23,NE,45,1.0,0.0,83,0.00,,,0.00,meteohub,2013-01-26 02:09:00,
2013-01-25 21:14:00,15.6,11.3,29.23,East,90,0.0,1.0,83,0.00,,,0.00,meteohub,2013-01-26 02:14:00,
2013-01-25 21:19:00,15.6,11.3,29.23,East,90,0.0,1.0,83,0.00,,,0.00,meteohub,2013-01-26 02:19:00,
2013-01-25 21:24:00,15.6,11.3,29.23,East,90,0.0,1.0,83,0.00,,,0.00,meteohub,2013-01-26 02:24:00,
2013-01-25 21:29:00,15.6,11.3,29.23,ESE,113,0.0,1.0,83,0.00,,,0.00,meteohub,2013-01-26 02:29:00,
2013-01-25 21:34:00,15.4,11.1,29.23,ESE,113,0.0,1.0,83,0.00,,,0.00,meteohub,2013-01-26 02:34:00,
2013-01-25 21:39:00,15.4,11.1,29.23,SSE,158,0.0,0.0,83,0.00,,,0.00,meteohub,2013-01-26 02:39:00,
2013-01-25 21:44:00,15.4,11.1,29.23,SSE,158,0.0,0.0,83,0.00,,,0.00,meteohub,2013-01-26 02:44:00,
2013-01-25 21:49:00,15.3,11.1,29.23,SSE,158,0.0,0.0,83,0.00,,,0.00,meteohub,2013-01-26 02:49:00,
2013-01-25 21:54:00,15.1,11.1,29.23,SSE,158,0.0,0.0,84,0.00,,,0.00,meteohub,2013-01-26 02:54:00,
2013-01-25 21:59:00,14.7,10.6,29.24,SE,135,0.0,0.0,83,0.00,,,0.00,meteohub,2013-01-26 02:59:00,
2013-01-25 22:04:00,14.2,10.0,29.24,ENE,68,0.0,0.0,83,0.00,,,0.00,meteohub,2013-01-26 03:04:00,
2013-01-25 22:09:00,14.0,9.9,29.24,NE,45,0.0,0.0,83,0.00,,,0.00,meteohub,2013-01-26 03:09:00,
2013-01-25 22:14:00,14.0,9.9,29.24,NE,45,0.0,0.0,83,0.00,,,0.00,meteohub,2013-01-26 03:14:00,
2013-01-25 22:19:00,14.2,10.0,29.25,East,90,0.0,1.0,83,0.00,,,0.00,meteohub,2013-01-26 03:19:00,
2013-01-25 22:24:00,14.2,10.0,29.25,SSE,158,0.0,1.0,83,0.00,,,0.00,meteohub,2013-01-26 03:24:00,
2013-01-25 22:29:00,14.0,9.9,29.25,South,180,0.0,1.0,83,0.00,,,0.00,meteohub,2013-01-26 03:29:00,
2013-01-25 22:34:00,14.0,9.9,29.25,East,90,0.0,0.0,83,0.00,,,0.00,meteohub,2013-01-26 03:34:00,
2013-01-25 22:39:00,13.8,9.7,29.25,SSE,158,0.0,0.0,83,0.00,,,0.00,meteohub,2013-01-26 03:39:00,
2013-01-25 22:44:00,13.8,9.7,29.25,SW,225,2.0,0.0,83,0.00,,,0.00,meteohub,2013-01-26 03:44:00,
2013-01-25 22:49:00,13.6,9.5,29.25,SSW,203,0.0,0.0,83,0.00,,,0.00,meteohub,2013-01-26 03:49:00,
2013-01-25 22:54:00,13.3,9.1,29.25,SE,135,0.0,2.0,83,0.00,,,0.00,meteohub,2013-01-26 03:54:00,
2013-01-25 22:59:00,13.1,9.1,29.25,SSW,203,1.0,2.0,84,0.00,,,0.00,meteohub,2013-01-26 03:59:00,
2013-01-25 23:04:00,12.9,9.0,29.25,ESE,113,0.0,1.0,84,0.00,,,0.00,meteohub,2013-01-26 04:04:00,
2013-01-25 23:09:00,12.6,8.6,29.25,SE,135,0.0,1.0,84,0.00,,,0.00,meteohub,2013-01-26 04:09:00,
2013-01-25 23:14:00,12.6,8.6,29.25,SSW,203,0.0,1.0,84,0.00,,,0.00,meteohub,2013-01-26 04:14:00,
2013-01-25 23:19:00,12.4,8.4,29.26,South,180,0.0,0.0,84,0.00,,,0.00,meteohub,2013-01-26 04:19:00,
2013-01-25 23:24:00,12.2,8.2,29.26,SW,225,0.0,0.0,84,0.00,,,0.00,meteohub,2013-01-26 04:24:00,
2013-01-25 23:29:00,12.2,8.2,29.26,SSW,203,0.0,0.0,84,0.00,,,0.00,meteohub,2013-01-26 04:29:00,
2013-01-25 23:34:00,12.0,8.1,29.26,SW,225,0.0,0.0,84,0.00,,,0.00,meteohub,2013-01-26 04:34:00,
2013-01-25 23:39:00,12.0,8.1,29.26,SW,225,0.0,0.0,84,0.00,,,0.00,meteohub,2013-01-26 04:39:00,
2013-01-25 23:44:00,11.8,7.9,29.26,NNE,23,0.0,0.0,84,0.00,,,0.00,meteohub,2013-01-26 04:44:00,
2013-01-25 23:49:00,11.8,7.9,29.26,NE,45,0.0,0.0,84,0.00,,,0.00,meteohub,2013-01-26 04:49:00,
2013-01-25 23:54:00,11.7,7.7,29.26,ENE,68,0.0,0.0,84,0.00,,,0.00,meteohub,2013-01-26 04:54:00,
2013-01-25 23:59:00,11.7,7.7,29.26,SSW,203,0.0,0.0,84,0.00,,,0.00,meteohub,2013-01-26 04:59:00,